COSMOS 1225

Satellite information

Favourite Embed

Satellite Type and Status

PAYLOADIN ORBIT

Key statistics

Satellite COSMOS 1225 at a glance.

Uptime

16286

Days in orbit

Revolutions

≈ 13.7

Per day

Orbit

LEO

Low Earth Orbit

Inclination

82.9

Latest

Satellite identification and parameters

Extended collection of information and parameters for COSMOS 1225.

Object identification

Identified? True

Debris? False

Object name: COSMOS 1225

International designator: 1980-097A

Object number (NORAD): 12087

Object ID (CCSDS): 12087

Country: COMMONWEALTH OF INDEPENDENT STATES (CIS)

Current information (Y/N): Y

RCS size: LARGE

Orbital parameters

Period: 104.749 minutes

Inclination: 82.9462 deg

SMA: 7360.821 km

Apoapsis: 1023.049 km

Periapsis: 942.323 km

RAAN: 10.1991 deg

Eccentricy: 0.0054835

Argument of periapsis: 294.8353 deg

Mean anomaly: 240.1657 deg

Mean motion: 13.74717205 rev/day

Mean motion (dot): 0.00000064 rev/day2

B* drag term: 0.00005203 1/REarth

Two-line elements (TLE)

Creation date: July 8, 2025, 2:27 a.m.

Reference frame: TEME

Reference center: EARTH

Epoch: July 7, 2025, 10:14 p.m. UTC

TLE line 0: 0 COSMOS 1225

TLE line 1: 1 12087U 80097A 25188.92705424 .00000064 00000-0 52030-4 0 9993

TLE line 2: 2 12087 82.9462 10.1991 0054835 294.8353 240.1657 13.74717205236138

Live tracking on map

Real-time ground track for satellite COSMOS 1225.

In-orbit conjunctions

A list of the most updated potential collisions computed for object COSMOS 1225.

Target Orbit TCA Probability of collision Miss distance Type
COSMOS 926 DEB LEO 2024-10-06 14:51:58 0.0004640455 595.0 (m) DEBRIS

Associated space launch

Navigation satellite providing location information for the Tsiklon-B navigation system

COSMOS 1225 was lifted into orbit during the mission ‘Kosmos-3M | Parus 25’, on board a Kosmos-3M space rocket.

The launch took place on Dec. 5, 1980, 4:23 a.m. from 132/1 (132L).

For more information about the launch, click the button.

Launch to space Kosmos-3M | Parus 25
Kosmos-3M | Parus 25

Agency: N/A

Status: Launch Successful

Launch date: Dec. 5, 1980, 4:23 a.m. UTC

Rocket: Kosmos-3M

Launch pad: 132/1 (132L)

Location: Plesetsk Cosmodrome, Russian Federation

...

Latest news about this satellite

There are no fresh news available about this satellite. Check back as we update our databases every day.


Newsletter sign-up

Weekly statistics, charts and insights to help you stay on top of the space industry.